Weather History for Pontiac, MI

Change the Weather History Date:

Sunday, April 27, 2014

  Actual Average Record
Temperature  
Mean Temperature 43 °F -  
Max Temperature 53 °F 60 °F 70 °F (2003)
Min Temperature 33 °F 38 °F 30 °F (2002)
Degree Days  
Heating Degree Days 22    
Moisture  
Dew Point 29 °F    
Average Humidity 59    
Maximum Humidity 79    
Minimum Humidity 41    
Precipitation  
Precipitation 0.00 in - - ()
Sea Level Pressure  
Sea Level Pressure 30.14 in    
Wind  
Wind Speed 8 mph (ENE)    
Max Wind Speed 16 mph    
Max Gust Speed 22 mph    
Visibility 10 miles    
Events      
Averages and records for this station are not official NWS values.
T = Trace of Precipitation, MM = Missing Value Source: NWS Daily Summary

Daily Weather History Graph

Daily Weather History Graph

Search for Another Location

Airport:

Trip Planner

Search our weather history database for the weather conditions in past years. The results will help you decide how hot, cold, wet, or windy it might be!

Date:

Astronomy

Apr. 27, 2014 Rise Set
Actual Time 6:33 AM EDT 8:29 PM EDT
Civil Twilight 6:03 AM EDT 8:59 PM EDT
Nautical Twilight 5:26 AM EDT 9:37 PM EDT
Astronomical Twilight 4:46 AM EDT 10:17 PM EDT
Moon 5:36 AM EDT (4/27) 7:00 PM EDT (4/27)
Length of Visible Light 14h 56m
Length of Day
13h 55m
Waning Crescent, 3% of the Moon is Illuminated
Apr 27
Waning Crescent
Apr 29
New
May 6
First Quarter
May 14
Full
May 21
Last Quarter

Hourly Weather History & Observations

Time (EDT) Temp. Windchill Dew Point Humidity Pressure Visibility Wind Dir Wind Speed Gust Speed Precip Events Conditions
12:53 AM 36.0 °F 29.0 °F 28.9 °F 76% 30.13 in 10.0 mi ENE 9.2 mph - N/A   Clear
1:53 AM 34.0 °F 29.8 °F 28.0 °F 79% 30.14 in 10.0 mi ENE 4.6 mph - N/A   Clear
2:53 AM 33.1 °F 30.0 °F 27.0 °F 78% 30.13 in 10.0 mi North 3.5 mph - N/A   Clear
3:53 AM 34.0 °F - 27.0 °F 75% 30.14 in 10.0 mi Calm Calm - N/A   Clear
4:53 AM 33.1 °F 28.7 °F 26.1 °F 75% 30.14 in 10.0 mi NE 4.6 mph - N/A   Clear
5:53 AM 33.1 °F 28.7 °F 27.0 °F 78% 30.15 in 10.0 mi NNE 4.6 mph - N/A   Scattered Clouds
6:53 AM 33.1 °F - 27.0 °F 78% 30.18 in 10.0 mi Calm Calm - N/A   Scattered Clouds
7:53 AM 35.6 °F 30.7 °F 28.4 °F 75% 30.16 in 10.0 mi ENE 5.8 mph - N/A   Scattered Clouds
8:53 AM 39.0 °F 33.4 °F 28.0 °F 65% 30.21 in 10.0 mi East 8.1 mph - N/A   Mostly Cloudy
9:53 AM 42.1 °F 35.7 °F 27.0 °F 55% 30.20 in 10.0 mi NE 11.5 mph - N/A   Mostly Cloudy
10:53 AM 44.1 °F 37.7 °F 26.1 °F 49% 30.18 in 10.0 mi ENE 12.7 mph - N/A   Mostly Cloudy
11:53 AM 46.4 °F 41.1 °F 28.4 °F 50% 30.17 in 10.0 mi ENE 11.5 mph 21.9 mph N/A   Mostly Cloudy
12:53 PM 46.9 °F - 28.9 °F 50% 30.16 in 10.0 mi East 11.5 mph - N/A   Mostly Cloudy
1:53 PM 50.0 °F - 28.9 °F 44% 30.14 in 10.0 mi ENE 13.8 mph 19.6 mph N/A   Mostly Cloudy
2:53 PM 51.1 °F - 28.0 °F 41% 30.14 in 10.0 mi East 11.5 mph 20.7 mph N/A   Overcast
3:53 PM 51.8 °F - 28.4 °F 41% 30.11 in 10.0 mi ENE 12.7 mph - N/A   Overcast
4:53 PM 53.1 °F - 30.0 °F 41% 30.11 in 10.0 mi East 9.2 mph - N/A   Mostly Cloudy
5:53 PM 53.1 °F - 30.9 °F 43% 30.11 in 10.0 mi East 9.2 mph - N/A   Mostly Cloudy
6:53 PM 51.1 °F - 32.0 °F 48% 30.12 in 10.0 mi ESE 13.8 mph - N/A   Overcast
7:53 PM 48.9 °F - 30.9 °F 50% 30.11 in 10.0 mi East 16.1 mph - N/A   Overcast
8:53 PM 48.0 °F - 32.0 °F 54% 30.13 in 10.0 mi East 11.5 mph - N/A   Overcast
9:53 PM 46.0 °F 40.2 °F 30.9 °F 56% 30.14 in 10.0 mi East 12.7 mph - N/A   Overcast
10:53 PM 45.0 °F 39.7 °F 30.0 °F 56% 30.14 in 10.0 mi East 10.4 mph - N/A   Overcast
11:53 PM 43.0 °F 37.7 °F 28.9 °F 58% 30.12 in 10.0 mi ENE 9.2 mph - N/A   Overcast